Stations météo

réclame
Mon MeteoGroup
Kleine Brogel, Belgique (6479): Température de l'air & dewpoint: 14.01.2021 06:00:00 - 20.01.2021 06:00:00 (CET)Kleine Brogel, Belgique (6479): Vitesse du vent & gusts: 14.01.2021 06:00:00 - 20.01.2021 06:00:00 (CET)Kleine Brogel, Belgique (6479): Direction du vent: 14.01.2021 06:00:00 - 20.01.2021 06:00:00 (CET)Kleine Brogel, Belgique (6479): reduced air pressure: 14.01.2021 06:00:00 - 20.01.2021 06:00:00 (CET)Kleine Brogel, Belgique (6479): visibility: 14.01.2021 06:00:00 - 20.01.2021 06:00:00 (CET)
Date & Time tt [°C] td [°C] ff [km/h] ff [knt] fx [km/h] fx [knt] dd ppp [hPa] vv [km]
20.01.2021 06:00:00 7,0 2,0 22 12 36 19 SSW 1001,3 20
20.01.2021 05:00:00 6,8 3,2 18 10 36 19 SSW 1001,8 20
20.01.2021 04:00:00 6,8 2,7 22 12 - - SSW 1002,7 20
20.01.2021 03:00:00 6,5 2,6 22 12 40 21 SSW 1003,2 20
20.01.2021 02:00:00 6,4 2,5 22 12 40 21 SSW 1003,7 20
20.01.2021 01:00:00 6,1 2,5 22 12 - - SSW 1004,3 20
20.01.2021 00:00:00 6,1 3,1 29 16 43 23 SSW 1005,2 20
19.01.2021 23:00:00 6,3 3,6 22 12 40 21 SSW 1006,0 20
19.01.2021 22:00:00 6,0 4,0 18 10 - - SSW 1006,8 20
19.01.2021 21:00:00 6,0 4,2 25 14 43 23 SSW 1007,7 15
19.01.2021 20:00:00 6,0 4,4 25 14 47 25 SSW 1007,8 15
19.01.2021 19:00:00 6,4 5,3 25 14 - - SW 1008,0 8
19.01.2021 18:00:00 7,3 6,2 25 14 43 23 SW 1007,7 8
19.01.2021 17:00:00 8,0 6,8 25 14 47 25 SW 1007,7 8
19.01.2021 16:00:00 8,8 7,3 32 18 - - SW 1007,2 15
19.01.2021 15:00:00 9,0 7,3 32 18 54 29 SW 1007,1 15
19.01.2021 14:00:00 8,8 7,3 36 19 58 31 WSW 1007,1 15
19.01.2021 13:00:00 7,5 6,6 29 16 - - SW 1007,2 7
19.01.2021 12:00:00 6,8 5,9 32 18 54 29 SW 1007,5 8
19.01.2021 11:00:00 5,9 4,8 32 18 58 31 SW 1007,5 8
19.01.2021 10:00:00 5,5 4,3 36 19 - - SW 1007,3 5
19.01.2021 09:00:00 5,1 4,1 36 19 58 31 SSW 1008,0 10
19.01.2021 08:00:00 4,8 3,8 29 16 54 29 SSW 1008,8 6
19.01.2021 07:00:00 4,9 3,6 26 14 - - SSW 1009,7 10
19.01.2021 06:00:00 4,5 3,4 25 14 43 23 SSW 1011,3 20
19.01.2021 05:00:00 4,3 2,4 26 14 40 21 SSW 1012,7 10
19.01.2021 04:00:00 4,1 1,9 22 12 - - SSW 1014,1 20
19.01.2021 03:00:00 4,1 1,3 22 12 36 19 SSW 1015,6 20
19.01.2021 02:00:00 4,6 1,4 22 12 43 23 SSW 1016,6 20
19.01.2021 01:00:00 5,0 2,4 22 12 - - SSW 1017,7 20
19.01.2021 00:00:00 4,9 3,1 22 12 32 18 SW 1018,6 20
18.01.2021 23:00:00 4,8 3,7 22 12 36 19 SW 1019,2 13
18.01.2021 22:00:00 5,0 3,4 21 11 - - SW 1019,7 10
18.01.2021 21:00:00 4,8 3,2 18 10 32 18 SW 1020,2 12
18.01.2021 20:00:00 4,9 3,1 21 11 32 18 SW 1020,7 10
18.01.2021 19:00:00 5,1 3,1 18 10 - - SW 1020,8 12
18.01.2021 18:00:00 5,4 3,2 22 12 29 16 SW 1020,7 12
18.01.2021 17:00:00 5,5 3,1 22 12 36 19 SW 1021,0 12
18.01.2021 16:00:00 5,8 2,9 18 10 - - SW 1021,3 12
18.01.2021 15:00:00 6,0 2,9 22 12 36 19 SW 1021,6 12
18.01.2021 14:00:00 5,8 2,9 25 14 36 19 WSW 1022,2 12
18.01.2021 13:00:00 - - - - - - - - -
18.01.2021 12:00:00 4,9 2,6 22 12 32 18 SW 1023,2 12
18.01.2021 11:00:00 3,7 2,1 18 10 29 16 SW 1023,8 12
18.01.2021 10:00:00 2,5 1,6 15 8 - - SW 1023,7 9
18.01.2021 09:00:00 2,0 1,5 14 8 22 12 SSW 1023,7 9
18.01.2021 08:00:00 2,0 2,0 13 7 - - SW - 9
18.01.2021 07:00:00 2,9 2,3 15 8 - - SW 1023,7 9
18.01.2021 06:00:00 3,0 2,4 11 6 22 12 SW 1023,8 7
18.01.2021 05:00:00 3,6 2,8 14 8 18 10 WSW 1024,0 12
18.01.2021 04:00:00 3,5 2,6 14 8 - - SW 1024,2 11
18.01.2021 03:00:00 3,5 2,5 14 8 18 10 SW 1024,0 11
18.01.2021 02:00:00 4,0 2,8 11 6 22 12 WSW 1024,4 15
18.01.2021 01:00:00 4,0 3,1 7 4 - - WSW 1024,7 14
18.01.2021 00:00:00 4,0 3,3 11 6 14 8 WSW 1024,5 10
17.01.2021 23:00:00 4,1 3,4 11 6 18 10 W 1024,2 10
17.01.2021 22:00:00 4,4 3,7 7 4 - - W 1024,0 13
17.01.2021 21:00:00 4,3 3,6 11 6 22 12 W 1023,7 13
17.01.2021 20:00:00 4,5 3,8 13 7 22 12 W 1023,5 10
17.01.2021 19:00:00 4,4 3,7 11 6 - - W 1023,0 12
17.01.2021 18:00:00 4,8 3,5 11 6 18 10 W 1022,3 20
17.01.2021 17:00:00 5,0 3,5 11 6 18 10 W 1021,7 20
17.01.2021 16:00:00 5,5 3,7 11 6 - - W 1021,0 20
17.01.2021 15:00:00 6,0 4,4 11 6 22 12 W 1020,0 16
17.01.2021 14:00:00 6,2 4,5 11 6 22 12 W 1019,6 18
17.01.2021 13:00:00 5,4 4,2 11 6 - - W 1019,5 14
17.01.2021 12:00:00 4,4 3,9 11 6 18 10 W 1019,1 9
17.01.2021 11:00:00 3,4 3,0 11 6 18 10 W 1018,6 5
17.01.2021 10:00:00 2,8 2,6 11 6 - - W 1017,6 4,5
17.01.2021 09:00:00 1,7 1,5 11 6 18 10 WSW 1016,8 2,6
17.01.2021 08:00:00 1,2 1,2 11 6 18 10 WSW 1016,1 0,5
17.01.2021 07:00:00 0,7 0,6 11 6 - - WSW 1015,5 0,9
17.01.2021 06:00:00 0,4 0,4 11 6 18 10 SW 1015,5 3,9
17.01.2021 05:00:00 0,2 0,1 7 4 14 8 SSW 1015,5 2,5
17.01.2021 04:00:00 0,0 0,0 7 4 - - SSW 1015,6 3,6
17.01.2021 03:00:00 -0,2 -0,2 7 4 14 8 SSW 1015,7 2,8
17.01.2021 02:00:00 -0,4 -0,4 8 4 14 8 SSW 1016,0 3,0
17.01.2021 01:00:00 -0,6 -0,6 7 4 - - SSW 1016,1 4,0
17.01.2021 00:00:00 -0,8 -0,8 8 4 14 8 SSW 1016,6 2,3
16.01.2021 23:00:00 -0,7 -0,9 7 4 14 8 SSW 1017,2 4,0
16.01.2021 22:00:00 -1,0 -1,1 7 4 - - S 1017,2 3,5
16.01.2021 21:00:00 -1,1 -1,2 7 4 22 12 S 1017,7 3,0
16.01.2021 20:00:00 -1,1 -1,2 7 4 18 10 S 1018,3 3,0
16.01.2021 19:00:00 -1,0 -1,0 7 4 - - S 1018,6 2,6
16.01.2021 18:00:00 -1,1 -1,2 7 4 18 10 S 1019,2 2,2
16.01.2021 17:00:00 -1,0 -1,3 9 5 32 18 S 1020,3 2,0
16.01.2021 16:00:00 0,7 -4,8 11 6 - - S 1021,3 13
16.01.2021 15:00:00 0,8 -5,0 11 6 29 16 S 1022,2 20
16.01.2021 14:00:00 1,2 -5,0 11 6 29 16 S 1023,3 20
16.01.2021 13:00:00 1,5 -5,1 11 6 - - SSW 1024,7 20
16.01.2021 12:00:00 1,2 -3,0 11 6 18 10 SSW 1025,9 20
16.01.2021 11:00:00 0,6 -1,8 7 4 14 8 S 1026,5 16
16.01.2021 10:00:00 0,3 -1,6 4 2 - - N 1026,9 16
16.01.2021 09:00:00 0,0 -1,9 7 4 11 6 SSW 1027,2 14
16.01.2021 08:00:00 0,0 -2,0 7 4 14 8 SSW 1027,7 9
16.01.2021 07:00:00 0,0 -1,9 4 2 - - N 1028,0 14
16.01.2021 06:00:00 0,1 -2,1 4 2 11 6 N 1028,5 14
16.01.2021 05:00:00 0,0 -1,8 4 2 7 4 N 1029,0 15
16.01.2021 04:00:00 -0,1 -1,8 4 2 - - N 1029,5 14
16.01.2021 03:00:00 -0,3 -1,6 4 2 7 4 N 1029,9 11
16.01.2021 02:00:00 -0,2 -1,4 4 2 7 4 N 1030,2 13
16.01.2021 01:00:00 -0,4 -1,5 4 2 - - N 1030,5 12
16.01.2021 00:00:00 -0,5 -1,3 4 2 4 2 N 1030,9 13
15.01.2021 23:00:00 -0,4 -1,3 4 2 4 2 N 1031,0 10
15.01.2021 22:00:00 -0,2 -1,3 4 2 - - N 1031,0 11
15.01.2021 21:00:00 -0,1 -1,5 4 2 4 2 N 1030,9 11
15.01.2021 20:00:00 0,3 -1,7 4 2 7 4 N 1030,7 12
15.01.2021 19:00:00 0,4 -1,7 4 2 - - N 1030,4 15
15.01.2021 18:00:00 0,4 -1,4 4 2 4 2 N 1030,2 15
15.01.2021 17:00:00 0,7 -1,3 4 2 7 4 N 1029,7 17
15.01.2021 16:00:00 - - - - - - - - -
15.01.2021 15:00:00 1,3 -1,3 7 4 14 8 NNW 1029,4 15
15.01.2021 14:00:00 - - - - - - - - -
15.01.2021 13:00:00 0,6 -1,2 7 4 - - NNW 1029,5 15
15.01.2021 12:00:00 0,4 -1,2 7 4 14 8 N 1029,2 15
15.01.2021 11:00:00 0,2 -1,3 7 4 11 6 N 1028,7 15
15.01.2021 10:00:00 0,0 -2,0 5 3 - - N - 10
15.01.2021 09:00:00 -0,2 -2,0 7 4 14 8 NNE 1027,2 20
15.01.2021 08:00:00 -0,3 -2,3 7 4 14 8 NNE 1026,2 20
15.01.2021 07:00:00 -0,6 -2,7 7 4 - - NNE 1025,7 20
15.01.2021 06:00:00 -0,9 -3,4 14 8 18 10 NNE 1025,0 20
15.01.2021 05:00:00 -1,1 -3,1 11 6 18 10 NNE 1024,4 19
15.01.2021 04:00:00 -1,5 -3,0 11 6 - - NNE 1023,7 19
15.01.2021 03:00:00 -0,9 -2,6 11 6 22 12 NE 1023,2 13
15.01.2021 02:00:00 -0,9 -3,0 11 6 22 12 NE 1022,2 18
15.01.2021 01:00:00 -0,5 -2,9 14 8 - - NE 1021,6 20
15.01.2021 00:00:00 -0,3 -2,6 14 8 22 12 ENE 1021,1 18
14.01.2021 23:00:00 0,2 -2,9 14 8 25 14 ENE 1020,5 16
14.01.2021 22:00:00 0,3 -2,4 14 8 - - ENE 1020,0 18
14.01.2021 21:00:00 0,1 -2,2 14 8 22 12 ENE 1019,2 20
14.01.2021 20:00:00 0,2 -2,0 14 8 18 10 ENE 1018,7 20
14.01.2021 19:00:00 1,2 -1,6 14 8 - - ENE 1018,2 20
14.01.2021 18:00:00 1,6 -1,8 11 6 25 14 E 1018,3 20
14.01.2021 17:00:00 1,7 -1,7 11 6 25 14 E 1018,2 20
14.01.2021 16:00:00 2,0 -1,5 14 8 - - E 1018,1 20
14.01.2021 15:00:00 2,2 -1,5 11 6 25 14 E 1018,1 20
14.01.2021 14:00:00 - - - - - - - - -
14.01.2021 13:00:00 2,0 -1,7 7 4 - - E 1019,2 18
14.01.2021 12:00:00 1,7 -1,0 7 4 14 8 E 1019,8 18
14.01.2021 11:00:00 1,6 -0,7 7 4 11 6 E 1020,2 17
14.01.2021 10:00:00 0,9 0,1 4 2 - - N 1020,1 15
14.01.2021 09:00:00 0,3 0,0 4 2 4 2 N 1019,3 12
14.01.2021 08:00:00 0,3 0,1 4 2 0 0 N 1019,1 12
14.01.2021 07:00:00 0,6 0,4 2 1 - - - 1019,0 10
14.01.2021 06:00:00 0,8 0,5 4 2 4 2 N 1018,7 20

tt = Température de l'air
td = dewpoint
ff = Vitesse du vent
fx = gusts
dd = Direction du vent
ppp = reduced air pressure
vv = visibility

stations d'obs. à proximité